Regional Weather Roundup
Issued by NWS Lake Charles, LA

Home | Current Version | Previous Version | Text Only | Print | Product List | Glossary On
Versions: 1 2 3 4 5 6 7 8 9 10 11 12 13 14 15 16 17 18 19 20 21 22 23 24 25 26 27 28 29 30 31 32 33 34 35 36 37 38 39 40 41 42 43 44 45 46 47 48 49 50
805
ASUS44 KLCH 200010
RWRLCH
REGIONAL WEATHER ROUNDUP
NATIONAL WEATHER SERVICE LAKE CHARLES LA
600 PM CST THU JAN 19 2017

Note: "fair" indicates few or no clouds below 12,000 feet with no
significant weather and/or obstructions to visibility.


ACROSS SOUTHEAST TEXAS

CITY           SKY/WX    TMP DP  RH WIND       PRES   REMARKS
BEAUMONT       CLOUDY    64  59  83 S5        29.76S
BEAUMONT CITY  CLOUDY    65  59  83 S5        29.77S
ORANGE         CLOUDY    64  64 100 S5        29.78F
JASPER         CLOUDY    66  61  85 S5        29.78R
$$

ACROSS CENTRAL LOUISIANA

CITY           SKY/WX    TMP DP  RH WIND       PRES   REMARKS
LEESVILLE      PTCLDY    62  59  90 S9        29.75R
FULLERTON      FAIR      61  59  93 CALM      29.73S
ALEXANDRIA INT PTCLDY    61  59  93 S6        29.74S
ESLER FIELD    PTCLDY    59  59 100 CALM      29.76S FOG
DERIDDER       MOCLDY    62  61  96 S3        29.78S
OAKDALE        CLOUDY    62  60  94 CALM      29.77S
OPELOUSAS      FAIR      60  58  93 SE3       29.78S
$$

ACROSS SOUTHWEST AND SOUTH CENTRAL LOUISIANA

CITY           SKY/WX    TMP DP  RH WIND       PRES   REMARKS
SULPHUR        CLOUDY    65  62  91 S3        29.78S
LAKE CHARLES   CLOUDY    64  61  90 S3        29.77S
CHENNAULT INT  CLOUDY    64  61  88 SE3       29.77F
CAMERON PHI    CLOUDY    64  61  88 S9        29.76F
DEQUINCY       CLOUDY    63  59  88 S6        29.77F
JENNINGS       NOT AVBL
LAFAYETTE      CLEAR     63  61  93 CALM      29.78S
NEW IBERIA     MOCLDY    64  60  87 CALM      29.78F
ABBEVILLE      FAIR      61  61 100 CALM      29.78F
PATTERSON      CLOUDY    63  62  97 S6        29.80F
SALT POINT     NOT AVBL
$$

SELECTED SITES ACROSS THE REGION

CITY           SKY/WX    TMP DP  RH WIND       PRES   REMARKS
HOUSTON BUSH   CLOUDY    64  59  83 W3        29.76S
HOUSTON HOBBY  CLOUDY    66  60  81 S7        29.77R
GALVESTON      CLOUDY    66  62  87 S10       29.78R
COLLEGE STAT   CLOUDY    61  58  90 CALM      29.74R
CONROE         CLOUDY    61  57  87 S5        29.77R
HUNTSVILLE     CLOUDY    61  57  87 S6        29.75R
LUFKIN         CLOUDY    60  57  89 S5        29.75R
SHREVEPORT     CLOUDY    61  56  83 SW12      29.73R
MONROE         PTCLDY    59  58  96 SW5       29.76R
NATCHEZ MS     MOCLDY    61  55  82 SE5       29.76R
BATON ROUGE    CLOUDY    63  61  93 S5        29.78F
N.O. INTL ARPT LGT RAIN  66  62  87 SW8       29.82S
SLIDELL        CLOUDY    66  63  90 S6        29.80F
$$

MARINE REPORTS

STATION/POSITION TIME  SKY/WX   TEMP    WIND        PRES    VSBY
                                AIR SEA DIR/SP/G
                 (UTC)          (F)     (DEG/KT/KT) (MB)    (MI)
BUOY 30 S HIGH I 2250            65 66  170/ 12/ 14 1008.0
WVE H/P(F/S)=  2/ 7

SEA RIM ST PARK  0000            63     190/  7/  8 1008.6R
PORT ARTHUR      2342               65  190/  3/  6 1008.2R
SABINE PASS N    2342            63 67  150/  5/  7 1009.1F
TEXAS POINT      NOT AVBL
CALCASIEU PASS   2348            63 65  180/  8/ 11   N/A
LK CHARLES BEACH 2348            65 66              1008.5R
MARSH ISLAND     2300            64                   N/A
FRESH WATER LOCK 2348            63 69  150/  3/  4 1009.3R
AMERADA PASS     2348            62 55  150/  3/  5 1009.2F
$$




USA.gov is the U.S. government's official web portal to all federal, state and local government web resources and services.